| time (UTC) | temp F | wind direction | speed knots | gust knots | rain 1hr in | rain 24hr in | rain mn in | humidity % | barometer mb |
| 20260506033006 | 58 | 185 | 2.6 | 5.2 | 0.00 | 0.00 | 0.00 | 39 | 1012.7 |
| 20260506031516 | 60 | 187 | 3.5 | 5.2 | 0.00 | 0.00 | 0.00 | 37 | 1012.4 |
| 20260506030010 | 62 | 234 | 4.3 | 7.0 | 0.00 | 0.00 | 0.00 | 35 | 1012.3 |
| 20260506024512 | 63 | 209 | 4.3 | 11.3 | 0.00 | 0.00 | 0.00 | 33 | 1012.0 |
| 20260506023003 | 64 | 277 | 7.0 | 11.3 | 0.00 | 0.00 | 0.00 | 31 | 1011.8 |
| 20260506021503 | 65 | 232 | 8.7 | 13.9 | 0.00 | 0.00 | 0.00 | 31 | 1011.5 |
| 20260506020003 | 65 | 225 | 12.2 | 15.6 | 0.00 | 0.00 | 0.00 | 31 | 1011.2 |
| 20260506014501 | 66 | 246 | 9.6 | 13.9 | 0.00 | 0.00 | 0.00 | 31 | 1011.0 |
| 20260506013001 | 66 | 221 | 13.0 | 17.4 | 0.00 | 0.00 | 0.00 | 30 | 1010.8 |
| 20260506011530 | 66 | 212 | 13.0 | 20.0 | 0.00 | 0.00 | 0.00 | 30 | 1010.7 |
| 20260506004540 | 66 | 219 | 14.8 | 24.3 | 0.00 | 0.00 | 0.00 | 29 | 1010.4 |
| 20260506003122 | 67 | 223 | 15.6 | 21.7 | 0.00 | 0.00 | 0.00 | 29 | 1010.3 |
| 20260506001608 | 68 | 245 | 19.1 | 24.3 | 0.00 | 0.00 | 0.00 | 28 | 1010.3 |
| 20260505234632 | 68 | 235 | 15.6 | 23.5 | 0.00 | 0.00 | 0.00 | 28 | 1010.5 |
| 20260505233120 | 69 | 193 | 18.2 | 27.8 | 0.00 | 0.00 | 0.00 | 27 | 1010.1 |
| 20260505231526 | 69 | 173 | 15.6 | 25.2 | 0.00 | 0.00 | 0.00 | 27 | 1010.2 |
| 20260505224501 | 70 | 194 | 16.5 | 27.8 | 0.00 | 0.00 | 0.00 | 27 | 1010.1 |
| 20260505223057 | 69 | 188 | 19.1 | 26.1 | 0.00 | 0.00 | 0.00 | 28 | 1010.4 |
| 20260505221603 | 70 | 219 | 19.1 | 29.5 | 0.00 | 0.00 | 0.00 | 31 | 1010.6 |
| 20260505220054 | 68 | 232 | 15.6 | 22.6 | 0.00 | 0.00 | 0.00 | 33 | 1011.0 |
| 20260505214542 | 68 | 240 | 17.4 | 24.3 | 0.00 | 0.00 | 0.00 | 33 | 1011.1 |
| 20260505213046 | 67 | 218 | 15.6 | 26.1 | 0.00 | 0.00 | 0.00 | 36 | 1011.3 |
| 20260505211543 | 68 | 209 | 17.4 | 26.9 | 0.00 | 0.00 | 0.00 | 36 | 1011.3 |
| 20260505210038 | 68 | 207 | 16.5 | 32.2 | 0.00 | 0.00 | 0.00 | 36 | 1011.4 |
| 20260505204537 | 67 | 212 | 14.8 | 24.3 | 0.00 | 0.00 | 0.00 | 38 | 1011.8 |
| 20260505203041 | 68 | 209 | 16.5 | 24.3 | 0.00 | 0.00 | 0.00 | 37 | 1012.0 |
| 20260505201535 | 68 | 216 | 17.4 | 26.1 | 0.00 | 0.00 | 0.00 | 36 | 1012.2 |
| 20260505194556 | 67 | 226 | 19.1 | 25.2 | 0.00 | 0.00 | 0.00 | 38 | 1012.4 |
| 20260505193014 | 67 | 223 | 17.4 | 24.3 | 0.00 | 0.00 | 0.00 | 38 | 1012.4 |
| 20260505191615 | 67 | 214 | 14.8 | 23.5 | 0.00 | 0.00 | 0.00 | 39 | 1012.3 |
| 20260505184519 | 66 | 219 | 14.8 | 26.1 | 0.00 | 0.00 | 0.00 | 38 | 1012.9 |
| 20260505183131 | 65 | 228 | 13.0 | 20.0 | 0.00 | 0.00 | 0.00 | 38 | 1013.0 |
| 20260505181548 | 64 | 225 | 11.3 | 14.8 | 0.00 | 0.00 | 0.00 | 40 | 1013.1 |
| 20260505174544 | 63 | 223 | 11.3 | 16.5 | 0.00 | 0.00 | 0.00 | 38 | 1013.5 |
| 20260505173007 | 62 | 225 | 10.4 | 15.6 | 0.00 | 0.00 | 0.00 | 39 | 1013.8 |
| 20260505171559 | 61 | 230 | 10.4 | 13.9 | 0.00 | 0.00 | 0.00 | 40 | 1013.8 |
| 20260505164523 | 61 | 214 | 10.4 | 14.8 | 0.00 | 0.00 | 0.00 | 41 | 1013.5 |
| 20260505163119 | 61 | 217 | 11.3 | 14.8 | 0.00 | 0.00 | 0.00 | 41 | 1013.5 |
| 20260505161539 | 61 | 221 | 7.8 | 12.2 | 0.00 | 0.00 | 0.00 | 41 | 1013.5 |
| 20260505153045 | 59 | 197 | 8.7 | 12.2 | 0.00 | 0.00 | 0.00 | 47 | 1013.7 |
| 20260505151539 | 59 | 205 | 8.7 | 14.8 | 0.00 | 0.00 | 0.00 | 49 | 1013.9 |
| 20260505124524 | 58 | 228 | 4.3 | 7.0 | 0.00 | 0.00 | 0.00 | 48 | 1013.5 |
| 20260505123023 | 58 | 232 | 4.3 | 7.0 | 0.00 | 0.00 | 0.00 | 48 | 1013.3 |
| 20260505121522 | 58 | 228 | 3.5 | 6.1 | 0.00 | 0.00 | 0.00 | 47 | 1013.3 |
| 20260505120035 | 59 | 228 | 6.1 | 8.7 | 0.00 | 0.00 | 0.00 | 46 | 1013.3 |
| 20260505114521 | 59 | 223 | 6.1 | 8.7 | 0.00 | 0.00 | 0.00 | 45 | 1013.3 |
| 20260505113019 | 59 | 205 | 6.1 | 9.6 | 0.00 | 0.00 | 0.00 | 46 | 1013.4 |
| 20260505111529 | 60 | 228 | 7.8 | 13.9 | 0.00 | 0.00 | 0.00 | 44 | 1013.5 |
| 20260505101512 | 59 | 232 | 6.1 | 8.7 | 0.00 | 0.00 | 0.00 | 47 | 1013.3 |
| 20260505100010 | 58 | 232 | 5.2 | 7.8 | 0.00 | 0.00 | 0.00 | 50 | 1013.3 |
| 20260505094508 | 58 | 229 | 2.6 | 5.2 | 0.00 | 0.00 | 0.00 | 54 | 1013.0 |
| 20260505093004 | 59 | 232 | 4.3 | 6.1 | 0.00 | 0.00 | 0.00 | 53 | 1013.4 |
| 20260505091501 | 60 | 230 | 6.1 | 7.8 | 0.00 | 0.00 | 0.00 | 46 | 1013.5 |
| 20260505090123 | 60 | 245 | 3.5 | 7.0 | 0.00 | 0.00 | 0.00 | 46 | 1013.5 |
| 20260505084615 | 61 | 253 | 5.2 | 7.8 | 0.00 | 0.00 | 0.00 | 45 | 1013.4 |
| 20260505083111 | 60 | 255 | 5.2 | 8.7 | 0.00 | 0.00 | 0.00 | 46 | 1013.7 |
| 20260505081603 | 59 | 264 | 4.3 | 7.8 | 0.00 | 0.00 | 0.00 | 53 | 1013.8 |
| 20260505074549 | 62 | 277 | 7.0 | 10.4 | 0.00 | 0.00 | 0.00 | 44 | 1014.0 |
| 20260505073054 | 62 | 254 | 7.8 | 12.2 | 0.00 | 0.00 | 0.00 | 41 | 1013.8 |
| 20260505071549 | 62 | 230 | 6.1 | 11.3 | 0.00 | 0.00 | 0.00 | 41 | 1013.8 |
| 20260505070050 | 62 | 241 | 9.6 | 13.9 | 0.00 | 0.00 | 0.00 | 43 | 1013.7 |
| 20260505064539 | 63 | 240 | 6.1 | 9.6 | 0.00 | 0.00 | 0.00 | 39 | 1013.5 |
| 20260505063041 | 63 | 233 | 5.2 | 8.7 | 0.00 | 0.00 | 0.00 | 36 | 1013.4 |
| 20260505061534 | 63 | 226 | 7.0 | 11.3 | 0.00 | 0.00 | 0.00 | 34 | 1013.2 |
| 20260505060051 | 63 | 180 | 4.3 | 7.8 | 0.00 | 0.00 | 0.00 | 33 | 1013.3 |
| 20260505054531 | 64 | 185 | 3.5 | 6.1 | 0.00 | 0.00 | 0.00 | 32 | 1013.4 |
| 20260505053029 | 64 | 239 | 4.3 | 7.8 | 0.00 | 0.00 | 0.00 | 31 | 1013.5 |
| 20260505051530 | 65 | 229 | 4.3 | 9.6 | 0.00 | 0.00 | 0.00 | 30 | 1013.6 |
| 20260505041532 | 67 | 229 | 7.0 | 13.9 | 0.00 | 0.00 | 0.00 | 26 | 1013.6 |
| 20260505040026 | 68 | 279 | 10.4 | 17.4 | 0.00 | 0.00 | 0.00 | 23 | 1013.5 |
| 20260505034525 | 69 | 246 | 8.7 | 13.9 | 0.00 | 0.00 | 0.00 | 21 | 1013.3 |